This demonstration page uses our WeatherBlox Daily Observations layout. Learn more.

Left ArrowRight Arrow

44.8408, -93.29828

Hourly Observations for July 22, 2016

Temp ( °F °C ) Dew Point ( °F °C ) Humidity (%) Winds ( mph kmh ) Pressure ( in mb ) Visibility ( mi km ) Precip ( " mm )
12:53 am 00:53 Mostly Cloudy 81 27.2 68 20 65 65 Calm 29.95 1014 10 16 0.00 0.00
1:53 am 01:53 Partly Cloudy 79 26.1 68 20 69 69 NE 3 6 29.95 1014 10 16 0.00 0.00
2:53 am 02:53 Mostly Clear 76 24.4 68 20 77 77 NW 3 6 29.96 1014 10 16 0.00 0.00
3:53 am 03:53 Partly Cloudy 77 25 68 20 74 74 Calm 29.95 1014 10 16 0.00 0.00
4:53 am 04:53 Partly Cloudy 75 23.9 67 19.4 76 76 Calm 29.95 1014 10 16 0.00 0.00
5:53 am 05:53 Partly Cloudy 75 23.9 67 19.4 76 76 Calm 29.96 1015 10 16 0.00 0.00
6:53 am 06:53 Mostly Sunny 76 24.4 67 19.4 74 74 E 7 11 29.96 1015 10 16 0.00 0.00
7:53 am 07:53 Mostly Sunny 80 26.7 65 18.3 60 60 NNE 6 9 30.00 1016 10 16 0.00 0.00
8:53 am 08:53 Mostly Sunny 82 27.8 64 17.8 55 55 E 7 11 30.00 1016 10 16 0.00 0.00
9:53 am 09:53 Mostly Sunny 85 29.4 64 17.8 50 50 VRB 7 11 29.99 1016 10 16 0.00 0.00
10:53 am 10:53 Sunny 88 31.1 62 16.7 42 42 E 7 11 29.99 1016 10 16 0.00 0.00
11:53 am 11:53 Sunny 90 32.2 62 16.7 39 39 E 6 9 30.00 1016 10 16 0.00 0.00
12:53 pm 12:53 Sunny 93 33.9 57 13.9 30 30 ENE 3 6 29.99 1016 10 16 0.00 0.00
1:53 pm 13:53 Sunny 95 35 42 5.6 16 16 ESE 7 11 29.98 1015 10 16 0.00 0.00
2:53 pm 14:53 Mostly Sunny 95 35 56 13.3 27 27 VRB 7 11 29.96 1015 10 16 0.00 0.00
3:53 pm 15:53 Mostly Sunny 96 35.6 54 12.2 24 24 E 9 15 29.96 1015 10 16 0.00 0.00
4:53 pm 16:53 Mostly Sunny 95 35 54 12.2 25 25 SSE 10 17 29.96 1014 10 16 0.00 0.00
5:53 pm 17:53 Mostly Sunny 96 35.6 57 13.9 27 27 SSE 12 19 29.96 1014 10 16 0.00 0.00
6:53 pm 18:53 Mostly Sunny 93 33.9 58 14.4 31 31 SSE 7 11 29.95 1014 10 16 0.00 0.00
7:53 pm 19:53 Mostly Cloudy 89 31.7 63 17.2 42 42 SSE 8 13 29.93 1013 10 16 0.00 0.00
8:53 pm 20:53 Mostly Cloudy 88 31.1 61 16.1 40 40 SE 7 11 29.93 1014 10 16 0.00 0.00
9:53 pm 21:53 Mostly Cloudy 84 28.9 63 17.2 49 49 SE 7 11 29.95 1014 10 16 0.00 0.00
10:53 pm 22:53 Mostly Cloudy 84 28.9 64 17.8 51 51 E 7 11 29.95 1014 10 16 0.00 0.00
11:53 pm 23:53 Mostly Cloudy 83 28.3 64 17.8 53 53 E 6 9 29.94 1014 10 16 0.00 0.00

Powered by AerisWeather